Time,TemperatureF,DewpointF,PressureIn,WindDirection,WindDirectionDegrees,WindSpeedMPH,WindSpeedGustMPH,Humidity,HourlyPrecipIn,Conditions,Clouds,dailyrainin,SolarRadiationWatts/m^2,SoftwareType,DateUTC
2013-02-09 00:04:00,42.5,42.5,30.10,North,0,0.0,0.0,100,0.00,RA,,0.00,0.0,WeatherDisplay:10.37,2013-02-09 00:04:00,
2013-02-09 00:09:00,42.3,42.3,30.10,NNW,337,0.0,0.0,100,0.01,RA,,0.01,0.0,WeatherDisplay:10.37,2013-02-09 00:09:00,
2013-02-09 00:14:00,42.3,42.3,30.10,North,0,0.0,0.0,100,0.01,RA,,0.01,0.0,WeatherDisplay:10.37,2013-02-09 00:14:00,
2013-02-09 00:19:00,42.3,42.3,30.10,NNW,347,0.0,0.0,100,0.01,CLR,,0.01,0.0,WeatherDisplay:10.37,2013-02-09 00:19:00,
2013-02-09 00:25:00,42.3,42.3,30.10,NNW,343,0.0,0.0,100,0.01,,,0.02,0.0,WeatherDisplay:10.37,2013-02-09 00:25:00,
2013-02-09 00:30:00,42.3,42.3,30.09,North,349,0.0,0.0,100,0.00,RA,,0.02,0.0,WeatherDisplay:10.37,2013-02-09 00:30:00,
2013-02-09 00:35:00,42.3,42.3,30.09,North,350,0.0,0.0,100,0.02,RA,,0.02,0.0,WeatherDisplay:10.37,2013-02-09 00:35:00,
2013-02-09 00:40:00,42.3,42.3,30.09,North,0,0.0,0.0,100,0.02,CLR,,0.02,0.0,WeatherDisplay:10.37,2013-02-09 00:40:00,
2013-02-09 00:45:00,42.3,42.3,30.09,NNW,332,0.0,0.0,100,0.02,,,0.02,0.0,WeatherDisplay:10.37,2013-02-09 00:45:00,
2013-02-09 00:51:00,42.3,42.3,30.09,North,0,0.0,0.0,100,0.02,,,0.02,0.0,WeatherDisplay:10.37,2013-02-09 00:51:00,
2013-02-09 00:56:00,42.3,42.3,30.09,North,354,0.0,0.0,100,0.02,,,0.02,0.0,WeatherDisplay:10.37,2013-02-09 00:56:00,
2013-02-09 01:01:00,42.3,42.3,30.09,North,353,0.0,0.0,100,0.02,,,0.02,0.0,WeatherDisplay:10.37,2013-02-09 01:01:00,
2013-02-09 01:06:00,42.3,42.3,30.09,North,349,0.0,0.0,100,0.01,,,0.02,0.0,WeatherDisplay:10.37,2013-02-09 01:06:00,
2013-02-09 01:11:00,42.3,42.3,30.09,NNW,340,0.0,0.0,100,0.01,,,0.02,0.0,WeatherDisplay:10.37,2013-02-09 01:11:00,
2013-02-09 01:17:00,42.3,42.3,30.09,North,352,0.0,0.0,100,0.01,,,0.02,0.0,WeatherDisplay:10.37,2013-02-09 01:17:00,
2013-02-09 01:22:00,42.3,42.3,30.09,North,352,0.0,0.0,100,0.01,,,0.02,0.0,WeatherDisplay:10.37,2013-02-09 01:22:00,
2013-02-09 01:27:00,42.3,42.3,30.09,North,356,0.0,0.0,100,0.00,,,0.02,0.0,WeatherDisplay:10.37,2013-02-09 01:27:00,
2013-02-09 01:32:00,42.2,42.2,30.09,North,350,0.0,0.0,100,0.01,RA,,0.03,0.0,WeatherDisplay:10.37,2013-02-09 01:32:00,
2013-02-09 01:37:00,42.2,42.2,30.09,NNW,347,0.0,0.0,100,0.01,RA,,0.03,0.0,WeatherDisplay:10.37,2013-02-09 01:37:00,
2013-02-09 01:42:00,42.2,42.2,30.09,NNW,344,0.0,0.0,100,0.01,,,0.03,0.0,WeatherDisplay:10.37,2013-02-09 01:42:00,
2013-02-09 01:48:00,42.2,42.2,30.09,North,357,0.0,0.0,100,0.01,CLR,,0.03,0.0,WeatherDisplay:10.37,2013-02-09 01:48:00,
2013-02-09 01:53:00,42.2,42.2,30.09,NNW,330,0.0,0.0,100,0.01,,,0.03,0.0,WeatherDisplay:10.37,2013-02-09 01:53:00,
2013-02-09 01:58:00,42.2,42.2,30.09,North,0,0.0,0.0,100,0.01,,,0.03,0.0,WeatherDisplay:10.37,2013-02-09 01:58:00,
2013-02-09 02:03:00,42.2,42.2,30.08,NNW,330,0.0,0.0,100,0.01,,,0.03,0.0,WeatherDisplay:10.37,2013-02-09 02:03:00,
2013-02-09 02:08:00,42.1,42.1,30.09,North,359,0.0,0.0,100,0.01,,,0.03,0.0,WeatherDisplay:10.37,2013-02-09 02:08:00,
2013-02-09 02:13:00,42.1,42.1,30.08,NNW,329,0.0,0.0,100,0.01,,,0.03,0.0,WeatherDisplay:10.37,2013-02-09 02:13:00,
2013-02-09 02:18:00,42.1,42.1,30.08,NNW,329,0.0,0.0,100,0.01,,,0.03,0.0,WeatherDisplay:10.37,2013-02-09 02:18:00,
2013-02-09 02:23:00,42.1,42.1,30.08,NNW,332,0.0,0.0,100,0.01,,,0.03,0.0,WeatherDisplay:10.37,2013-02-09 02:23:00,
2013-02-09 02:29:00,42.1,42.1,30.08,NNW,330,0.0,0.0,100,0.01,,,0.03,0.0,WeatherDisplay:10.37,2013-02-09 02:29:00,
2013-02-09 02:34:00,41.9,41.9,30.08,North,0,0.0,0.0,100,0.00,,,0.03,0.0,WeatherDisplay:10.37,2013-02-09 02:34:00,
2013-02-09 02:39:00,41.9,41.9,30.07,North,0,0.0,0.0,100,0.00,,,0.03,0.0,WeatherDisplay:10.37,2013-02-09 02:39:00,
2013-02-09 02:44:00,41.9,41.9,30.08,NNW,347,0.0,0.0,100,0.00,,,0.03,0.0,WeatherDisplay:10.37,2013-02-09 02:44:00,
2013-02-09 02:50:00,41.9,41.9,30.07,North,357,0.0,0.0,100,0.00,,,0.03,0.0,WeatherDisplay:10.37,2013-02-09 02:50:00,
2013-02-09 02:55:00,41.9,41.9,30.07,NNW,337,0.0,0.0,100,0.00,,,0.03,0.0,WeatherDisplay:10.37,2013-02-09 02:55:00,
2013-02-09 03:00:00,41.9,41.9,30.07,NNW,344,0.0,0.0,100,0.00,,,0.03,0.0,WeatherDisplay:10.37,2013-02-09 03:00:00,
2013-02-09 03:05:00,41.9,41.9,30.07,NNW,336,0.0,0.0,100,0.00,,,0.03,0.0,WeatherDisplay:10.37,2013-02-09 03:05:00,
2013-02-09 03:10:00,41.9,41.9,30.07,NNW,343,0.0,0.0,100,0.00,,,0.03,0.0,WeatherDisplay:10.37,2013-02-09 03:10:00,
2013-02-09 03:15:00,41.9,41.9,30.07,North,349,0.0,0.0,100,0.00,,,0.03,0.0,WeatherDisplay:10.37,2013-02-09 03:15:00,
2013-02-09 03:20:00,41.9,41.9,30.07,NNW,347,0.0,0.0,100,0.00,,,0.03,0.0,WeatherDisplay:10.37,2013-02-09 03:20:00,
2013-02-09 03:25:00,41.9,41.9,30.07,North,0,0.0,0.0,100,0.00,,,0.03,0.0,WeatherDisplay:10.37,2013-02-09 03:25:00,
2013-02-09 03:31:00,41.9,41.9,30.07,North,0,0.0,0.0,100,0.00,,,0.03,0.0,WeatherDisplay:10.37,2013-02-09 03:31:00,
2013-02-09 03:36:00,41.9,41.9,30.06,NNW,330,0.0,0.0,100,0.00,,,0.03,0.0,WeatherDisplay:10.37,2013-02-09 03:36:00,
2013-02-09 03:41:00,41.9,41.9,30.06,NNW,337,0.0,0.0,100,0.00,,,0.03,0.0,WeatherDisplay:10.37,2013-02-09 03:41:00,
2013-02-09 03:46:00,41.9,41.9,30.06,North,359,0.0,0.0,100,0.00,,,0.03,0.0,WeatherDisplay:10.37,2013-02-09 03:46:00,
2013-02-09 03:51:00,41.9,41.9,30.06,NNW,335,0.0,0.0,100,0.00,,,0.03,0.0,WeatherDisplay:10.37,2013-02-09 03:51:00,
2013-02-09 03:56:00,41.9,41.9,30.06,NNW,333,0.0,0.0,100,0.00,,,0.03,0.0,WeatherDisplay:10.37,2013-02-09 03:56:00,
2013-02-09 04:01:00,41.8,41.8,30.06,NNW,343,0.0,0.0,100,0.00,,,0.03,0.0,WeatherDisplay:10.37,2013-02-09 04:01:00,
2013-02-09 04:06:00,41.8,41.8,30.06,North,354,0.0,0.0,100,0.00,,,0.03,0.0,WeatherDisplay:10.37,2013-02-09 04:06:00,
2013-02-09 04:12:00,41.8,41.8,30.06,NNW,333,0.0,0.0,100,0.00,,,0.03,0.0,WeatherDisplay:10.37,2013-02-09 04:12:00,
2013-02-09 04:17:00,41.8,41.8,30.06,NNW,346,0.0,0.0,100,0.00,,,0.03,0.0,WeatherDisplay:10.37,2013-02-09 04:17:00,
2013-02-09 04:22:00,41.8,41.8,30.06,NNW,332,0.0,0.0,100,0.00,,,0.03,0.0,WeatherDisplay:10.37,2013-02-09 04:22:00,
2013-02-09 04:27:00,41.8,41.8,30.06,NNW,332,0.0,0.0,100,0.00,,,0.03,0.0,WeatherDisplay:10.37,2013-02-09 04:27:00,
2013-02-09 04:32:00,41.8,41.8,30.06,NNW,343,0.0,0.0,100,0.00,,,0.03,0.0,WeatherDisplay:10.37,2013-02-09 04:32:00,
2013-02-09 04:37:00,41.8,41.8,30.06,NNW,337,0.0,0.0,100,0.00,,,0.03,0.0,WeatherDisplay:10.37,2013-02-09 04:37:00,
2013-02-09 04:42:00,41.8,41.8,30.06,North,353,0.0,0.0,100,0.00,,,0.03,0.0,WeatherDisplay:10.37,2013-02-09 04:42:00,
2013-02-09 04:47:00,41.8,41.8,30.06,North,350,0.0,0.0,100,0.00,,,0.03,0.0,WeatherDisplay:10.37,2013-02-09 04:47:00,
2013-02-09 04:52:00,41.8,41.8,30.06,North,0,0.0,0.0,100,0.00,,,0.03,0.0,WeatherDisplay:10.37,2013-02-09 04:52:00,
2013-02-09 04:58:00,41.8,41.8,30.06,North,0,0.0,0.0,100,0.00,,,0.03,0.0,WeatherDisplay:10.37,2013-02-09 04:58:00,
2013-02-09 05:00:00,41.8,41.8,30.06,NNW,342,0.0,0.0,100,0.00,,,0.03,0.0,WeatherDisplay:10.37,2013-02-09 05:00:00,
2013-02-09 05:01:00,41.8,41.8,30.06,North,0,0.0,0.0,100,0.00,,,0.03,0.0,WeatherDisplay:10.37,2013-02-09 05:01:00,
2013-02-09 05:06:00,41.8,41.8,30.06,North,350,0.0,0.0,100,0.00,,,0.03,0.0,WeatherDisplay:10.37,2013-02-09 05:06:00,
2013-02-09 05:11:00,41.8,41.8,30.05,NNW,346,0.0,0.0,100,0.00,,,0.03,0.0,WeatherDisplay:10.37,2013-02-09 05:11:00,
2013-02-09 05:17:00,41.8,41.8,30.05,North,0,0.0,0.0,100,0.00,,,0.03,0.0,WeatherDisplay:10.37,2013-02-09 05:17:00,
2013-02-09 05:22:00,41.8,41.8,30.05,NNW,335,0.0,0.0,100,0.00,,,0.03,0.0,WeatherDisplay:10.37,2013-02-09 05:22:00,
2013-02-09 05:27:00,41.8,41.8,30.05,NNW,332,0.0,0.0,100,0.00,,,0.03,0.0,WeatherDisplay:10.37,2013-02-09 05:27:00,
2013-02-09 05:32:00,41.6,41.6,30.05,NNW,343,0.0,0.0,100,0.00,,,0.03,0.0,WeatherDisplay:10.37,2013-02-09 05:32:00,
2013-02-09 05:37:00,41.6,41.6,30.05,NNW,330,0.0,0.0,100,0.00,,,0.03,0.0,WeatherDisplay:10.37,2013-02-09 05:37:00,
2013-02-09 05:42:00,41.8,41.8,30.05,North,352,0.0,0.0,100,0.00,,,0.03,0.0,WeatherDisplay:10.37,2013-02-09 05:42:00,
2013-02-09 05:48:00,41.8,41.8,30.05,North,350,0.0,0.0,100,0.00,,,0.03,0.0,WeatherDisplay:10.37,2013-02-09 05:48:00,
2013-02-09 05:53:00,41.6,41.6,30.05,North,354,0.0,0.0,100,0.00,,,0.03,0.0,WeatherDisplay:10.37,2013-02-09 05:53:00,
2013-02-09 05:58:00,41.6,41.6,30.05,North,349,0.0,0.0,100,0.00,,,0.03,0.0,WeatherDisplay:10.37,2013-02-09 05:58:00,
2013-02-09 06:03:00,41.6,41.6,30.05,NNW,329,0.0,0.0,100,0.00,CLR,,0.03,0.0,WeatherDisplay:10.37,2013-02-09 06:03:00,
2013-02-09 06:08:00,41.6,41.6,30.05,NNW,335,0.0,0.0,100,0.00,CLR,,0.03,0.0,WeatherDisplay:10.37,2013-02-09 06:08:00,
2013-02-09 06:13:00,41.6,41.6,30.05,North,350,0.0,0.0,100,0.00,CLR,,0.03,0.0,WeatherDisplay:10.37,2013-02-09 06:13:00,
2013-02-09 06:18:00,41.6,41.6,30.05,North,349,0.0,0.0,100,0.00,CLR,,0.03,0.0,WeatherDisplay:10.37,2013-02-09 06:18:00,
2013-02-09 06:23:00,41.6,41.6,30.05,North,352,0.0,0.0,100,0.00,CLR,,0.03,0.0,WeatherDisplay:10.37,2013-02-09 06:23:00,
2013-02-09 06:28:00,41.8,41.8,30.05,NNW,337,0.0,0.0,100,0.00,CLR,,0.03,0.0,WeatherDisplay:10.37,2013-02-09 06:28:00,
2013-02-09 06:33:00,41.8,41.8,30.05,NNW,335,0.0,0.0,100,0.00,CLR,,0.03,0.0,WeatherDisplay:10.37,2013-02-09 06:33:00,
2013-02-09 06:38:00,41.8,41.8,30.05,NNW,343,0.0,0.0,100,0.00,CLR,,0.03,0.0,WeatherDisplay:10.37,2013-02-09 06:38:00,
2013-02-09 06:43:00,41.6,41.6,30.05,NNW,328,0.0,0.0,100,0.00,CLR,,0.03,0.0,WeatherDisplay:10.37,2013-02-09 06:43:00,
2013-02-09 06:48:00,41.6,41.6,30.05,NNW,329,0.0,0.0,100,0.00,CLR,,0.03,0.0,WeatherDisplay:10.37,2013-02-09 06:48:00,
2013-02-09 06:53:00,41.6,41.6,30.05,NNW,337,0.0,0.0,100,0.00,CLR,,0.03,0.0,WeatherDisplay:10.37,2013-02-09 06:53:00,
2013-02-09 06:58:00,41.6,41.6,30.05,NNW,343,0.0,0.0,100,0.00,CLR,,0.03,0.0,WeatherDisplay:10.37,2013-02-09 06:58:00,
2013-02-09 07:03:00,41.6,41.6,30.05,NNW,329,0.0,0.0,100,0.00,CLR,,0.03,0.0,WeatherDisplay:10.37,2013-02-09 07:03:00,
2013-02-09 07:08:00,41.6,41.6,30.05,NNW,343,0.0,0.0,100,0.00,CLR,,0.03,0.0,WeatherDisplay:10.37,2013-02-09 07:08:00,
2013-02-09 07:13:00,41.6,41.6,30.05,North,352,0.0,0.0,100,0.00,CLR,,0.03,0.0,WeatherDisplay:10.37,2013-02-09 07:13:00,
2013-02-09 07:18:00,41.6,41.6,30.05,North,0,0.0,0.0,100,0.00,CLR,,0.03,0.0,WeatherDisplay:10.37,2013-02-09 07:18:00,
2013-02-09 07:23:00,41.5,41.5,30.05,NNW,336,0.0,0.0,100,0.00,CLR,,0.03,0.0,WeatherDisplay:10.37,2013-02-09 07:23:00,
2013-02-09 07:28:00,41.5,41.5,30.05,NNW,347,0.0,0.0,100,0.00,OVC,,0.03,0.0,WeatherDisplay:10.37,2013-02-09 07:28:00,
2013-02-09 07:33:00,41.5,41.5,30.05,North,350,0.0,0.0,100,0.00,OVC,,0.03,0.0,WeatherDisplay:10.37,2013-02-09 07:33:00,
2013-02-09 07:38:00,41.5,41.5,30.05,North,353,0.0,0.0,100,0.00,OVC,,0.03,0.0,WeatherDisplay:10.37,2013-02-09 07:38:00,
2013-02-09 07:43:00,41.5,41.5,30.05,North,352,0.0,0.0,100,0.00,OVC,,0.03,0.0,WeatherDisplay:10.37,2013-02-09 07:43:00,
2013-02-09 07:48:00,41.5,41.5,30.05,NNW,335,0.0,0.0,100,0.00,OVC,,0.03,5.0,WeatherDisplay:10.37,2013-02-09 07:48:00,
2013-02-09 07:53:00,41.5,41.5,30.05,North,353,0.0,0.0,100,0.00,OVC,,0.03,5.0,WeatherDisplay:10.37,2013-02-09 07:53:00,
2013-02-09 07:58:00,41.3,41.3,30.05,NNW,330,0.0,0.0,100,0.00,OVC,,0.03,5.0,WeatherDisplay:10.37,2013-02-09 07:58:00,
2013-02-09 08:03:00,41.3,41.3,30.05,North,0,0.0,0.0,100,0.00,OVC,,0.03,5.0,WeatherDisplay:10.37,2013-02-09 08:03:00,
2013-02-09 08:08:00,41.3,41.3,30.05,NNW,336,0.0,0.5,100,0.00,OVC,,0.03,7.0,WeatherDisplay:10.37,2013-02-09 08:08:00,
2013-02-09 08:13:00,41.3,41.3,30.05,WNW,289,2.3,2.3,100,0.00,FEW,,0.03,7.0,WeatherDisplay:10.37,2013-02-09 08:13:00,
2013-02-09 08:18:00,41.2,41.2,30.05,SW,217,2.3,2.3,100,0.00,SCT,,0.03,9.0,WeatherDisplay:10.37,2013-02-09 08:18:00,
2013-02-09 08:23:00,41.2,41.2,30.05,SSE,151,3.5,3.5,100,0.00,BKN,,0.03,11.0,WeatherDisplay:10.37,2013-02-09 08:23:00,
2013-02-09 08:28:00,41.2,41.2,30.05,SSE,154,3.5,3.5,100,0.00,BKN,,0.03,12.0,WeatherDisplay:10.37,2013-02-09 08:28:00,
2013-02-09 08:33:00,41.2,41.2,30.05,SSE,161,2.3,2.3,100,0.00,BKN,,0.03,14.0,WeatherDisplay:10.37,2013-02-09 08:33:00,
2013-02-09 08:38:00,41.2,41.2,30.05,SSE,160,2.3,2.3,100,0.00,OVC,,0.03,14.0,WeatherDisplay:10.37,2013-02-09 08:38:00,
2013-02-09 08:43:00,41.2,41.2,30.05,SSE,150,0.0,0.0,100,0.00,OVC,,0.03,16.0,WeatherDisplay:10.37,2013-02-09 08:43:00,
2013-02-09 08:48:00,41.2,41.2,30.05,SE,136,2.0,2.0,100,0.00,OVC,,0.03,18.0,WeatherDisplay:10.37,2013-02-09 08:48:00,
2013-02-09 08:54:00,41.2,41.2,30.05,SSE,158,0.0,0.1,100,0.00,OVC,,0.03,19.0,WeatherDisplay:10.37,2013-02-09 08:54:00,
2013-02-09 08:59:00,41.2,41.2,30.05,SSE,155,2.3,2.3,100,0.00,OVC,,0.03,19.0,WeatherDisplay:10.37,2013-02-09 08:59:00,
2013-02-09 09:04:00,41.3,41.3,30.05,SSE,151,2.3,2.3,100,0.00,OVC,,0.03,21.0,WeatherDisplay:10.37,2013-02-09 09:04:00,
2013-02-09 09:09:00,41.3,41.3,30.05,SE,143,2.3,0.0,100,0.00,OVC,,0.03,25.0,WeatherDisplay:10.37,2013-02-09 09:09:00,
2013-02-09 09:14:00,41.3,41.3,30.05,SSE,158,2.3,2.3,100,0.00,OVC,,0.03,26.0,WeatherDisplay:10.37,2013-02-09 09:14:00,
2013-02-09 09:19:00,41.3,41.3,30.05,SSE,147,0.0,0.0,100,0.00,OVC,,0.03,30.0,WeatherDisplay:10.37,2013-02-09 09:19:00,
2013-02-09 09:25:00,41.5,41.5,30.05,SSE,155,2.3,2.3,100,0.00,OVC,,0.03,32.0,WeatherDisplay:10.37,2013-02-09 09:25:00,
2013-02-09 09:30:00,41.5,41.5,30.05,SSE,165,2.3,2.3,100,0.00,OVC,,0.03,37.0,WeatherDisplay:10.37,2013-02-09 09:30:00,
2013-02-09 09:35:00,41.5,41.5,30.05,SSE,160,1.2,1.2,100,0.00,OVC,,0.03,40.0,WeatherDisplay:10.37,2013-02-09 09:35:00,
2013-02-09 09:40:00,41.5,41.5,30.05,SSW,193,2.3,0.0,100,0.00,OVC,,0.03,44.0,WeatherDisplay:10.37,2013-02-09 09:40:00,
2013-02-09 09:45:00,41.6,41.6,30.05,South,186,2.3,2.3,100,0.00,OVC,,0.03,48.0,WeatherDisplay:10.37,2013-02-09 09:45:00,
2013-02-09 09:50:00,41.6,41.6,30.05,South,186,0.0,0.1,100,0.00,OVC,,0.03,48.0,WeatherDisplay:10.37,2013-02-09 09:50:00,
2013-02-09 09:55:00,41.6,41.6,30.05,SSW,200,3.5,3.5,100,0.00,OVC,,0.03,48.0,WeatherDisplay:10.37,2013-02-09 09:55:00,
2013-02-09 10:01:00,41.8,41.8,30.05,SSW,200,1.2,1.2,100,0.00,OVC,,0.03,46.0,WeatherDisplay:10.37,2013-02-09 10:01:00,
2013-02-09 10:06:00,41.8,41.8,30.05,South,191,2.3,2.3,100,0.00,OVC,,0.03,44.0,WeatherDisplay:10.37,2013-02-09 10:06:00,
2013-02-09 10:11:00,41.9,41.9,30.05,South,186,1.0,0.0,100,0.00,OVC,,0.03,48.0,WeatherDisplay:10.37,2013-02-09 10:11:00,
2013-02-09 10:16:00,42.1,42.1,30.04,SSW,199,1.2,0.0,100,0.00,OVC,,0.03,49.0,WeatherDisplay:10.37,2013-02-09 10:16:00,
2013-02-09 10:22:00,42.1,42.1,30.04,South,175,3.5,3.5,100,0.00,OVC,,0.03,55.0,WeatherDisplay:10.37,2013-02-09 10:22:00,
2013-02-09 10:27:00,42.1,42.1,30.04,SSW,196,2.3,2.3,100,0.00,OVC,,0.03,58.0,WeatherDisplay:10.37,2013-02-09 10:27:00,
2013-02-09 10:32:00,42.1,42.1,30.05,South,188,2.3,2.3,100,0.00,OVC,,0.03,55.0,WeatherDisplay:10.37,2013-02-09 10:32:00,
2013-02-09 10:37:00,42.1,42.1,30.05,SSE,154,1.2,0.0,100,0.00,OVC,,0.03,53.0,WeatherDisplay:10.37,2013-02-09 10:37:00,
2013-02-09 10:42:00,42.1,42.1,30.05,SSE,152,2.3,2.3,100,0.00,OVC,,0.03,58.0,WeatherDisplay:10.37,2013-02-09 10:42:00,
2013-02-09 10:47:00,42.2,42.2,30.05,SSE,154,3.0,3.0,100,0.00,OVC,,0.03,60.0,WeatherDisplay:10.37,2013-02-09 10:47:00,
2013-02-09 10:52:00,42.2,42.2,30.05,South,172,1.2,1.2,100,0.00,OVC,,0.03,62.0,WeatherDisplay:10.37,2013-02-09 10:52:00,
2013-02-09 10:57:00,42.3,42.3,30.05,SSE,150,3.5,3.5,100,0.00,OVC,,0.03,56.0,WeatherDisplay:10.37,2013-02-09 10:57:00,
2013-02-09 11:02:00,42.3,42.3,30.05,SE,143,3.0,3.0,100,0.00,OVC,,0.03,51.0,WeatherDisplay:10.37,2013-02-09 11:02:00,
2013-02-09 11:07:00,42.3,42.3,30.05,South,179,1.2,0.0,100,0.00,OVC,,0.03,58.0,WeatherDisplay:10.37,2013-02-09 11:07:00,
2013-02-09 11:12:00,42.3,42.3,30.05,SSE,148,2.3,2.3,100,0.00,OVC,,0.03,58.0,WeatherDisplay:10.37,2013-02-09 11:12:00,
2013-02-09 11:18:00,42.3,42.3,30.04,SSE,161,3.5,3.5,100,0.00,OVC,,0.03,58.0,WeatherDisplay:10.37,2013-02-09 11:18:00,
2013-02-09 11:23:00,42.5,42.5,30.04,SSE,160,2.3,2.3,100,0.00,OVC,,0.03,51.0,WeatherDisplay:10.37,2013-02-09 11:23:00,
2013-02-09 11:28:00,42.5,42.5,30.04,SSE,150,3.5,3.5,100,0.00,OVC,,0.03,48.0,WeatherDisplay:10.37,2013-02-09 11:28:00,
2013-02-09 11:33:00,42.3,42.3,30.04,SSE,151,1.2,1.2,100,0.00,OVC,,0.03,48.0,WeatherDisplay:10.37,2013-02-09 11:33:00,
2013-02-09 11:38:00,42.5,42.5,30.04,SSE,154,3.5,3.5,100,0.00,OVC,,0.03,48.0,WeatherDisplay:10.37,2013-02-09 11:38:00,
2013-02-09 11:43:00,42.3,42.3,30.04,South,185,4.6,4.6,100,0.00,OVC,,0.03,49.0,WeatherDisplay:10.37,2013-02-09 11:43:00,
2013-02-09 11:48:00,42.3,42.3,30.03,South,182,2.3,2.3,100,0.00,OVC,,0.03,49.0,WeatherDisplay:10.37,2013-02-09 11:48:00,
2013-02-09 11:53:00,42.5,42.5,30.03,SE,143,2.3,2.3,100,0.00,OVC,,0.03,62.0,WeatherDisplay:10.37,2013-02-09 11:53:00,
2013-02-09 11:59:00,42.5,42.5,30.03,SE,141,2.3,2.3,100,0.00,OVC,,0.03,74.0,WeatherDisplay:10.37,2013-02-09 11:59:00,
2013-02-09 12:04:00,42.5,42.5,30.03,SSE,152,3.5,3.5,100,0.00,OVC,,0.03,67.0,WeatherDisplay:10.37,2013-02-09 12:04:00,
2013-02-09 12:09:00,42.6,42.6,30.03,South,172,2.3,2.3,100,0.00,OVC,,0.03,67.0,WeatherDisplay:10.37,2013-02-09 12:09:00,
2013-02-09 12:14:00,42.6,42.6,30.03,South,191,3.5,3.5,100,0.00,OVC,,0.03,63.0,WeatherDisplay:10.37,2013-02-09 12:14:00,
2013-02-09 12:19:00,42.8,42.8,30.03,SSE,167,4.6,4.6,100,0.00,OVC,,0.03,56.0,WeatherDisplay:10.37,2013-02-09 12:19:00,
2013-02-09 12:24:00,42.8,42.8,30.03,SSE,164,3.5,3.5,100,0.00,OVC,,0.03,51.0,WeatherDisplay:10.37,2013-02-09 12:24:00,
2013-02-09 12:29:00,42.6,42.6,30.03,South,175,3.5,3.5,100,0.00,OVC,,0.03,55.0,WeatherDisplay:10.37,2013-02-09 12:29:00,
2013-02-09 12:34:00,42.6,42.6,30.03,SSW,208,3.5,0.0,100,0.00,OVC,,0.03,46.0,WeatherDisplay:10.37,2013-02-09 12:34:00,
2013-02-09 12:40:00,42.8,42.8,30.03,South,185,2.3,2.3,100,0.00,OVC,,0.03,56.0,WeatherDisplay:10.37,2013-02-09 12:40:00,
2013-02-09 12:45:00,42.9,42.9,30.03,SSE,165,5.8,5.8,100,0.00,OVC,,0.03,49.0,WeatherDisplay:10.37,2013-02-09 12:45:00,
2013-02-09 12:50:00,42.8,42.8,30.02,South,185,2.3,2.3,100,0.00,OVC,,0.03,39.0,WeatherDisplay:10.37,2013-02-09 12:50:00,
2013-02-09 12:55:00,42.8,42.8,30.02,South,184,3.5,3.5,100,0.00,OVC,,0.03,40.0,WeatherDisplay:10.37,2013-02-09 12:55:00,
2013-02-09 13:01:00,42.8,42.8,30.02,SSE,165,4.6,4.6,100,0.00,OVC,,0.03,42.0,WeatherDisplay:10.37,2013-02-09 13:01:00,
2013-02-09 13:06:00,42.6,42.6,30.02,South,178,3.5,3.5,100,0.00,OVC,,0.03,39.0,WeatherDisplay:10.37,2013-02-09 13:06:00,
2013-02-09 13:11:00,42.6,42.6,30.02,SSE,148,3.5,3.5,100,0.00,OVC,,0.03,40.0,WeatherDisplay:10.37,2013-02-09 13:11:00,
2013-02-09 13:16:00,42.6,42.6,30.02,South,171,3.5,3.5,100,0.00,OVC,,0.03,40.0,WeatherDisplay:10.37,2013-02-09 13:16:00,
2013-02-09 13:21:00,42.8,42.8,30.02,SSE,158,3.5,3.5,100,0.00,OVC,,0.03,44.0,WeatherDisplay:10.37,2013-02-09 13:21:00,
2013-02-09 13:26:00,42.8,42.8,30.01,SSW,199,3.5,3.5,100,0.00,OVC,,0.03,42.0,WeatherDisplay:10.37,2013-02-09 13:26:00,
2013-02-09 13:32:00,42.8,42.8,30.01,South,189,3.5,3.5,100,0.00,OVC,,0.03,39.0,WeatherDisplay:10.37,2013-02-09 13:32:00,
2013-02-09 13:37:00,42.8,42.8,30.01,South,175,2.3,2.3,100,0.00,OVC,,0.03,48.0,WeatherDisplay:10.37,2013-02-09 13:37:00,
2013-02-09 13:42:00,42.9,42.9,30.01,SSE,165,3.0,3.0,100,0.00,OVC,,0.03,42.0,WeatherDisplay:10.37,2013-02-09 13:42:00,
2013-02-09 13:47:00,42.9,42.9,30.01,SE,128,2.3,2.3,100,0.00,OVC,,0.03,46.0,WeatherDisplay:10.37,2013-02-09 13:47:00,
2013-02-09 13:52:00,42.9,42.9,30.00,South,172,3.5,3.5,100,0.00,OVC,,0.03,49.0,WeatherDisplay:10.37,2013-02-09 13:52:00,
2013-02-09 13:58:00,42.8,42.8,30.00,South,174,5.8,5.8,100,0.00,OVC,,0.03,35.0,WeatherDisplay:10.37,2013-02-09 13:58:00,
2013-02-09 14:03:00,42.8,42.8,30.00,SSW,192,3.5,3.5,100,0.00,OVC,,0.03,33.0,WeatherDisplay:10.37,2013-02-09 14:03:00,
2013-02-09 14:08:00,42.9,42.9,30.00,South,184,3.5,3.5,100,0.00,OVC,,0.03,33.0,WeatherDisplay:10.37,2013-02-09 14:08:00,
2013-02-09 14:13:00,42.8,42.8,30.00,South,188,4.6,4.6,100,0.00,OVC,,0.03,30.0,WeatherDisplay:10.37,2013-02-09 14:13:00,
2013-02-09 14:18:00,42.8,42.8,30.00,South,179,4.6,4.6,100,0.00,OVC,,0.03,26.0,WeatherDisplay:10.37,2013-02-09 14:18:00,
2013-02-09 14:23:00,42.8,42.8,30.00,South,174,3.0,3.0,100,0.00,OVC,,0.03,28.0,WeatherDisplay:10.37,2013-02-09 14:23:00,
2013-02-09 14:29:00,42.8,42.8,30.00,SSW,193,2.3,2.3,100,0.00,OVC,,0.03,30.0,WeatherDisplay:10.37,2013-02-09 14:29:00,
2013-02-09 14:34:00,42.8,42.8,29.99,SSE,148,2.3,2.3,100,0.00,OVC,,0.03,28.0,WeatherDisplay:10.37,2013-02-09 14:34:00,
2013-02-09 14:39:00,42.8,42.8,29.99,South,174,3.5,3.5,100,0.00,OVC,,0.03,26.0,WeatherDisplay:10.37,2013-02-09 14:39:00,
2013-02-09 14:44:00,42.8,42.8,29.99,SSW,199,2.3,2.3,100,0.00,OVC,,0.03,28.0,WeatherDisplay:10.37,2013-02-09 14:44:00,
2013-02-09 14:49:00,42.8,42.8,29.99,SSW,196,3.5,3.5,100,0.00,OVC,,0.03,26.0,WeatherDisplay:10.37,2013-02-09 14:49:00,
2013-02-09 14:54:00,42.8,42.8,29.98,South,181,3.5,3.5,100,0.00,OVC,,0.03,25.0,WeatherDisplay:10.37,2013-02-09 14:54:00,
2013-02-09 15:00:00,42.8,42.8,29.98,SSE,168,2.3,2.3,100,0.00,OVC,,0.03,25.0,WeatherDisplay:10.37,2013-02-09 15:00:00,
2013-02-09 15:05:00,42.8,42.8,29.98,South,172,0.0,0.0,100,0.00,OVC,,0.03,25.0,WeatherDisplay:10.37,2013-02-09 15:05:00,
2013-02-09 15:10:00,42.8,42.8,29.98,SSE,152,3.5,3.5,100,0.00,OVC,,0.03,26.0,WeatherDisplay:10.37,2013-02-09 15:10:00,
2013-02-09 15:15:00,42.8,42.8,29.97,SE,138,3.5,3.5,100,0.00,OVC,,0.03,23.0,WeatherDisplay:10.37,2013-02-09 15:15:00,
2013-02-09 15:20:00,42.8,42.8,29.97,SE,140,2.3,2.3,100,0.00,OVC,,0.03,21.0,WeatherDisplay:10.37,2013-02-09 15:20:00,
2013-02-09 15:25:00,42.8,42.8,29.97,SE,138,3.5,3.5,100,0.00,OVC,,0.03,19.0,WeatherDisplay:10.37,2013-02-09 15:25:00,
2013-02-09 15:31:00,42.8,42.8,29.97,SSE,160,2.3,2.3,100,0.00,OVC,,0.03,21.0,WeatherDisplay:10.37,2013-02-09 15:31:00,
2013-02-09 15:36:00,42.8,42.8,29.97,SSE,161,3.5,3.5,100,0.00,OVC,,0.03,21.0,WeatherDisplay:10.37,2013-02-09 15:36:00,
2013-02-09 15:41:00,42.8,42.8,29.97,SE,144,3.5,3.5,100,0.00,OVC,,0.03,19.0,WeatherDisplay:10.37,2013-02-09 15:41:00,
2013-02-09 15:46:00,42.8,42.8,29.97,SE,145,2.3,2.3,100,0.00,OVC,,0.03,19.0,WeatherDisplay:10.37,2013-02-09 15:46:00,
2013-02-09 15:51:00,42.8,42.8,29.97,SSE,152,3.5,3.5,100,0.00,OVC,,0.03,18.0,WeatherDisplay:10.37,2013-02-09 15:51:00,
2013-02-09 15:56:00,42.8,42.8,29.97,SSE,147,2.3,2.3,100,0.00,OVC,,0.03,12.0,WeatherDisplay:10.37,2013-02-09 15:56:00,
2013-02-09 16:01:00,42.8,42.8,29.96,SSE,167,1.2,1.2,100,0.00,OVC,,0.03,11.0,WeatherDisplay:10.37,2013-02-09 16:01:00,
2013-02-09 16:06:00,42.8,42.8,29.96,South,185,1.0,1.0,100,0.00,OVC,,0.03,11.0,WeatherDisplay:10.37,2013-02-09 16:06:00,
2013-02-09 16:12:00,42.8,42.8,29.96,South,178,3.5,3.5,100,0.00,OVC,,0.03,9.0,WeatherDisplay:10.37,2013-02-09 16:12:00,
2013-02-09 16:17:00,42.8,42.8,29.96,South,169,2.3,2.3,100,0.00,OVC,,0.03,7.0,WeatherDisplay:10.37,2013-02-09 16:17:00,
2013-02-09 16:22:00,42.6,42.6,29.96,South,179,2.0,2.0,100,0.00,OVC,,0.03,7.0,WeatherDisplay:10.37,2013-02-09 16:22:00,
2013-02-09 16:27:00,42.6,42.6,29.96,SSE,152,2.3,2.3,100,0.00,OVC,,0.03,7.0,WeatherDisplay:10.37,2013-02-09 16:27:00,
2013-02-09 16:32:00,42.6,42.6,29.96,SSE,162,3.5,3.5,100,0.00,OVC,,0.03,7.0,WeatherDisplay:10.37,2013-02-09 16:32:00,
2013-02-09 16:38:00,42.6,42.6,29.95,South,176,2.3,2.3,100,0.00,OVC,,0.03,5.0,WeatherDisplay:10.37,2013-02-09 16:38:00,
2013-02-09 16:43:00,42.5,42.5,29.95,SSE,167,1.2,1.2,100,0.00,OVC,,0.03,5.0,WeatherDisplay:10.37,2013-02-09 16:43:00,
2013-02-09 16:48:00,42.5,42.5,29.95,South,175,2.3,2.3,100,0.00,BKN,,0.03,5.0,WeatherDisplay:10.37,2013-02-09 16:48:00,
2013-02-09 16:53:00,42.5,42.5,29.95,South,184,2.3,2.3,100,0.00,FEW,,0.03,5.0,WeatherDisplay:10.37,2013-02-09 16:53:00,
2013-02-09 16:58:00,42.5,42.5,29.95,South,189,2.3,2.3,100,0.00,OVC,,0.03,0.0,WeatherDisplay:10.37,2013-02-09 16:58:00,
2013-02-09 17:03:00,42.5,42.5,29.95,South,182,4.6,4.6,100,0.00,OVC,,0.03,0.0,WeatherDisplay:10.37,2013-02-09 17:03:00,
2013-02-09 17:08:00,42.5,42.5,29.95,South,176,2.3,2.3,100,0.00,OVC,,0.03,0.0,WeatherDisplay:10.37,2013-02-09 17:08:00,
2013-02-09 17:14:00,42.5,42.5,29.94,South,181,3.5,3.5,100,0.00,OVC,,0.03,0.0,WeatherDisplay:10.37,2013-02-09 17:14:00,
2013-02-09 17:19:00,42.5,42.5,29.94,SSW,203,2.3,2.3,100,0.00,OVC,,0.03,0.0,WeatherDisplay:10.37,2013-02-09 17:19:00,
2013-02-09 17:24:00,42.5,42.5,29.94,SSW,200,3.5,3.5,100,0.00,OVC,,0.03,0.0,WeatherDisplay:10.37,2013-02-09 17:24:00,
2013-02-09 17:29:00,42.5,42.5,29.94,South,182,3.0,3.0,100,0.00,OVC,,0.03,0.0,WeatherDisplay:10.37,2013-02-09 17:29:00,
2013-02-09 17:34:00,42.5,42.5,29.94,South,179,2.3,2.3,100,0.00,OVC,,0.03,0.0,WeatherDisplay:10.37,2013-02-09 17:34:00,
2013-02-09 17:39:00,42.6,42.6,29.94,SSE,155,2.3,2.3,100,0.00,OVC,,0.03,0.0,WeatherDisplay:10.37,2013-02-09 17:39:00,
2013-02-09 17:44:00,42.5,42.5,29.93,SSE,158,1.2,1.2,100,0.00,,,0.03,0.0,WeatherDisplay:10.37,2013-02-09 17:44:00,
2013-02-09 17:49:00,42.5,42.5,29.93,SSE,165,2.3,2.3,100,0.00,,,0.03,0.0,WeatherDisplay:10.37,2013-02-09 17:49:00,
2013-02-09 17:54:00,42.5,42.5,29.93,SSW,195,2.3,2.3,100,0.00,,,0.03,0.0,WeatherDisplay:10.37,2013-02-09 17:54:00,
2013-02-09 18:00:00,42.5,42.5,29.93,SSW,206,2.3,2.3,100,0.00,,,0.03,0.0,WeatherDisplay:10.37,2013-02-09 18:00:00,
2013-02-09 18:05:00,42.5,42.5,29.92,SSW,199,3.5,3.5,100,0.00,,,0.03,0.0,WeatherDisplay:10.37,2013-02-09 18:05:00,
2013-02-09 18:10:00,42.5,42.5,29.92,SSE,168,3.0,3.0,100,0.00,,,0.03,0.0,WeatherDisplay:10.37,2013-02-09 18:10:00,
2013-02-09 18:15:00,42.5,42.5,29.92,SSE,168,5.8,5.8,100,0.00,,,0.03,0.0,WeatherDisplay:10.37,2013-02-09 18:15:00,
2013-02-09 18:20:00,42.3,42.3,29.92,South,185,3.0,3.0,100,0.00,,,0.03,0.0,WeatherDisplay:10.37,2013-02-09 18:20:00,
2013-02-09 18:26:00,42.3,42.3,29.91,South,175,3.5,3.5,100,0.00,,,0.03,0.0,WeatherDisplay:10.37,2013-02-09 18:26:00,
2013-02-09 18:31:00,42.3,42.3,29.91,SSW,198,3.5,3.5,100,0.00,,,0.03,0.0,WeatherDisplay:10.37,2013-02-09 18:31:00,
2013-02-09 18:36:00,42.3,42.3,29.91,South,174,2.3,2.3,100,0.00,,,0.03,0.0,WeatherDisplay:10.37,2013-02-09 18:36:00,
2013-02-09 18:41:00,42.3,42.3,29.91,SSE,155,3.5,3.5,100,0.00,,,0.03,0.0,WeatherDisplay:10.37,2013-02-09 18:41:00,
2013-02-09 18:46:00,42.3,42.3,29.91,South,185,3.0,3.0,100,0.00,,,0.03,0.0,WeatherDisplay:10.37,2013-02-09 18:46:00,
2013-02-09 18:51:00,42.2,42.2,29.91,South,186,2.3,2.3,100,0.00,,,0.03,0.0,WeatherDisplay:10.37,2013-02-09 18:51:00,
2013-02-09 18:56:00,42.2,42.2,29.91,South,178,2.3,2.3,100,0.00,,,0.03,0.0,WeatherDisplay:10.37,2013-02-09 18:56:00,
2013-02-09 19:02:00,42.2,42.2,29.91,South,184,3.5,3.5,100,0.00,,,0.03,0.0,WeatherDisplay:10.37,2013-02-09 19:02:00,
2013-02-09 19:07:00,42.2,42.2,29.91,South,179,3.5,3.5,100,0.00,,,0.03,0.0,WeatherDisplay:10.37,2013-02-09 19:07:00,
2013-02-09 19:12:00,42.2,42.2,29.91,SSW,196,3.5,3.5,100,0.00,,,0.03,0.0,WeatherDisplay:10.37,2013-02-09 19:12:00,
2013-02-09 19:17:00,42.2,42.2,29.90,SSW,208,3.5,3.5,100,0.00,,,0.03,0.0,WeatherDisplay:10.37,2013-02-09 19:17:00,
2013-02-09 19:22:00,42.2,42.2,29.90,South,175,3.5,3.5,100,0.00,,,0.03,0.0,WeatherDisplay:10.37,2013-02-09 19:22:00,
2013-02-09 19:27:00,42.2,42.2,29.90,SSW,200,4.6,4.6,100,0.00,,,0.03,0.0,WeatherDisplay:10.37,2013-02-09 19:27:00,
2013-02-09 19:33:00,42.1,42.1,29.89,South,175,3.5,3.5,100,0.00,,,0.03,0.0,WeatherDisplay:10.37,2013-02-09 19:33:00,
2013-02-09 19:38:00,42.1,42.1,29.89,South,185,3.5,3.5,100,0.00,,,0.03,0.0,WeatherDisplay:10.37,2013-02-09 19:38:00,
2013-02-09 19:43:00,42.1,42.1,29.89,SSW,200,2.3,2.3,100,0.00,,,0.03,0.0,WeatherDisplay:10.37,2013-02-09 19:43:00,
2013-02-09 19:48:00,42.1,42.1,29.89,SSW,196,2.3,2.3,100,0.00,,,0.03,0.0,WeatherDisplay:10.37,2013-02-09 19:48:00,
2013-02-09 19:53:00,42.1,42.1,29.89,South,185,3.5,3.5,100,0.00,,,0.03,0.0,WeatherDisplay:10.37,2013-02-09 19:53:00,
2013-02-09 19:58:00,42.1,42.1,29.88,South,191,3.5,3.5,100,0.00,,,0.03,0.0,WeatherDisplay:10.37,2013-02-09 19:58:00,
2013-02-09 20:04:00,42.1,42.1,29.88,SSW,198,3.5,3.5,100,0.00,,,0.03,0.0,WeatherDisplay:10.37,2013-02-09 20:04:00,
2013-02-09 20:09:00,42.1,42.1,29.88,SSW,205,3.5,3.5,100,0.01,RA,,0.04,0.0,WeatherDisplay:10.37,2013-02-09 20:09:00,
2013-02-09 20:14:00,42.1,42.1,29.88,SSW,212,2.3,2.3,100,0.01,RA,,0.04,0.0,WeatherDisplay:10.37,2013-02-09 20:14:00,
2013-02-09 20:19:00,41.9,41.9,29.87,SW,216,3.5,3.5,100,0.01,CLR,,0.04,0.0,WeatherDisplay:10.37,2013-02-09 20:19:00,
2013-02-09 20:24:00,41.9,41.9,29.87,SSW,203,3.0,3.0,100,0.01,CLR,,0.04,0.0,WeatherDisplay:10.37,2013-02-09 20:24:00,
2013-02-09 20:29:00,41.9,41.9,29.87,SSW,199,3.5,3.5,100,0.01,CLR,,0.04,0.0,WeatherDisplay:10.37,2013-02-09 20:29:00,
2013-02-09 20:34:00,41.8,41.8,29.87,West,260,1.2,1.2,100,0.02,RA,,0.05,0.0,WeatherDisplay:10.37,2013-02-09 20:34:00,
2013-02-09 20:39:00,41.8,41.8,29.86,South,185,2.3,2.3,100,0.02,RA,,0.05,0.0,WeatherDisplay:10.37,2013-02-09 20:39:00,
2013-02-09 20:44:00,41.8,41.8,29.86,South,184,3.5,3.5,100,0.02,CLR,,0.05,0.0,WeatherDisplay:10.37,2013-02-09 20:44:00,
2013-02-09 20:49:00,41.8,41.8,29.86,SSE,151,2.3,2.3,100,0.02,CLR,,0.05,0.0,WeatherDisplay:10.37,2013-02-09 20:49:00,
2013-02-09 20:55:00,41.8,41.8,29.85,SSE,155,4.6,4.6,100,0.02,CLR,,0.05,0.0,WeatherDisplay:10.37,2013-02-09 20:55:00,
2013-02-09 21:00:00,41.8,41.8,29.85,South,176,3.5,3.5,100,0.02,CLR,,0.05,0.0,WeatherDisplay:10.37,2013-02-09 21:00:00,
2013-02-09 21:05:00,41.8,41.8,29.85,SSE,168,2.3,2.3,100,0.02,CLR,,0.05,0.0,WeatherDisplay:10.37,2013-02-09 21:05:00,
2013-02-09 21:10:00,41.8,41.8,29.85,SSE,164,3.5,3.5,100,0.01,CLR,,0.06,0.0,WeatherDisplay:10.37,2013-02-09 21:10:00,
2013-02-09 21:15:00,41.8,41.8,29.84,South,182,5.8,5.8,100,0.02,RA,,0.06,0.0,WeatherDisplay:10.37,2013-02-09 21:15:00,
2013-02-09 21:20:00,41.6,41.6,29.84,South,182,2.3,2.3,100,0.02,RA,,0.06,0.0,WeatherDisplay:10.37,2013-02-09 21:20:00,
2013-02-09 21:26:00,41.6,41.6,29.84,SSW,192,2.3,2.3,100,0.02,CLR,,0.06,0.0,WeatherDisplay:10.37,2013-02-09 21:26:00,
2013-02-09 21:31:00,41.6,41.6,29.83,SSW,202,3.5,3.5,100,0.01,CLR,,0.06,0.0,WeatherDisplay:10.37,2013-02-09 21:31:00,
2013-02-09 21:36:00,41.5,41.5,29.83,SSW,205,2.3,2.3,100,0.02,RA,,0.07,0.0,WeatherDisplay:10.37,2013-02-09 21:36:00,
2013-02-09 21:41:00,41.5,41.5,29.83,SSW,199,3.5,3.5,100,0.02,RA,,0.07,0.0,WeatherDisplay:10.37,2013-02-09 21:41:00,
2013-02-09 21:47:00,41.5,41.5,29.83,SSW,195,1.2,1.4,100,0.02,,,0.07,0.0,WeatherDisplay:10.37,2013-02-09 21:47:00,
2013-02-09 21:52:00,41.5,41.5,29.83,South,189,3.5,3.5,100,0.02,CLR,,0.07,0.0,WeatherDisplay:10.37,2013-02-09 21:52:00,
2013-02-09 21:57:00,41.3,41.3,29.83,SSW,200,5.8,5.8,100,0.03,RA,,0.08,0.0,WeatherDisplay:10.37,2013-02-09 21:57:00,
2013-02-09 22:02:00,41.3,41.3,29.82,SSW,210,4.6,4.6,100,0.03,RA,,0.08,0.0,WeatherDisplay:10.37,2013-02-09 22:02:00,
2013-02-09 22:07:00,41.2,41.2,29.82,SSW,212,4.6,4.6,100,0.04,RA,,0.09,0.0,WeatherDisplay:10.37,2013-02-09 22:07:00,
2013-02-09 22:12:00,41.2,41.2,29.82,SSW,192,5.8,5.8,100,0.03,RA,,0.09,0.0,WeatherDisplay:10.37,2013-02-09 22:12:00,
2013-02-09 22:18:00,41.2,41.2,29.82,South,191,3.5,3.5,100,0.03,CLR,,0.09,0.0,WeatherDisplay:10.37,2013-02-09 22:18:00,
2013-02-09 22:23:00,41.2,41.2,29.81,SSW,208,3.5,3.5,100,0.03,CLR,,0.09,0.0,WeatherDisplay:10.37,2013-02-09 22:23:00,
2013-02-09 22:28:00,41.1,41.1,29.81,SW,230,4.6,4.6,100,0.03,CLR,,0.09,0.0,WeatherDisplay:10.37,2013-02-09 22:28:00,
2013-02-09 22:33:00,41.1,41.1,29.80,SW,216,7.0,7.0,100,0.03,CLR,,0.09,0.0,WeatherDisplay:10.37,2013-02-09 22:33:00,
2013-02-09 22:39:00,41.1,41.1,29.80,SSW,209,4.6,4.6,100,0.02,CLR,,0.09,0.0,WeatherDisplay:10.37,2013-02-09 22:39:00,
2013-02-09 22:44:00,40.9,40.9,29.80,South,185,4.6,4.6,100,0.03,RA,,0.10,0.0,WeatherDisplay:10.37,2013-02-09 22:44:00,
2013-02-09 22:49:00,40.9,40.9,29.80,South,191,5.8,5.8,100,0.03,RA,,0.10,0.0,WeatherDisplay:10.37,2013-02-09 22:49:00,
2013-02-09 22:54:00,40.8,40.8,29.80,SSW,212,3.5,3.5,100,0.02,,,0.10,0.0,WeatherDisplay:10.37,2013-02-09 22:54:00,
2013-02-09 22:59:00,40.8,40.8,29.80,South,189,6.0,6.0,100,0.02,CLR,,0.10,0.0,WeatherDisplay:10.37,2013-02-09 22:59:00,
2013-02-09 23:04:00,40.6,40.6,29.79,SSW,202,5.8,5.8,100,0.02,CLR,,0.10,0.0,WeatherDisplay:10.37,2013-02-09 23:04:00,
2013-02-09 23:09:00,40.6,40.6,29.79,SSW,209,6.9,6.9,100,0.01,CLR,,0.10,0.0,WeatherDisplay:10.37,2013-02-09 23:09:00,
2013-02-09 23:14:00,40.6,40.6,29.79,South,181,6.9,6.9,100,0.01,CLR,,0.10,0.0,WeatherDisplay:10.37,2013-02-09 23:14:00,
2013-02-09 23:19:00,40.5,40.5,29.78,South,191,3.5,3.8,100,0.01,CLR,,0.10,0.0,WeatherDisplay:10.37,2013-02-09 23:19:00,
2013-02-09 23:24:00,40.5,40.5,29.78,SSW,192,5.8,5.8,100,0.01,CLR,,0.11,0.0,WeatherDisplay:10.37,2013-02-09 23:24:00,
2013-02-09 23:30:00,40.3,40.3,29.78,SSW,208,6.0,6.0,100,0.02,RA,,0.11,0.0,WeatherDisplay:10.37,2013-02-09 23:30:00,
2013-02-09 23:35:00,40.2,40.2,29.78,SSW,212,4.6,4.6,100,0.02,,,0.11,0.0,WeatherDisplay:10.37,2013-02-09 23:35:00,
2013-02-09 23:40:00,40.2,40.2,29.77,SSW,205,3.5,3.5,100,0.02,CLR,,0.11,0.0,WeatherDisplay:10.37,2013-02-09 23:40:00,
2013-02-09 23:45:00,40.3,40.3,29.77,SSW,206,3.5,3.5,100,0.01,CLR,,0.11,0.0,WeatherDisplay:10.37,2013-02-09 23:45:00,
2013-02-09 23:50:00,40.3,40.3,29.77,SSW,209,4.6,4.6,100,0.01,CLR,,0.11,0.0,WeatherDisplay:10.37,2013-02-09 23:50:00,
2013-02-09 23:55:00,40.3,40.3,29.77,SSW,202,6.9,6.9,100,0.01,CLR,,0.11,0.0,WeatherDisplay:10.37,2013-02-09 23:55:00,